STARLINK-34005, 63935

Orbit data source: Space-Track

STARLINK-34005, 63935 is a payload satellite owned by SpaceX/Seattle (US) in LEO that was launched on Tue, 13 May 2025 UTC via an FALCON 9 launch vehicle from the Air Force Western Test Range (AFWTR). Payload-class satellites include a variety of spacecraft equipped with specific instruments for various scientific and technological missions. These include communications satellites like Starlink; space stations such as the ISS; scientific satellites like the Hubble; Earth observation satellites from companies like Planet Labs, Umbra, and HawkEye 360; GPS; miniature CubeSats for education and research; and military/defense satellites.

Loading next visibility...
Identifier
63935, 2025-098K
Orbit
LEO
Last TLE update
15 hours ago
Origin
Manufacturer
SpaceX/Seattle
Mission
Operational spacecraft
Bus & Motor
STARLINK V2MO, Unknown motor
Mass
575 kg wet, ~530 kg dry
Launch date (UTC)
2025-05-13 (1 month ago)
Launch vehicle
FALCON 9
Launch site
Air Force Western Test Range (AFWTR)
Object type
Payload
Rocket body
Debris
Shape & HBR
Unknown
Radar Cross Section
Large (>1 m²)

Expand to show TLE details & history

TLE from 15 hours ago
0 STARLINK-34005
1 63935U 25098K   25175.08045492  .00027254  00000-0  62283-3 0  9996
2 63935  69.9998 209.3604 0002766 269.5694  90.5171 15.42747395  7753
Epoch: 2025-06-24T01:55Z
TLE epoch observation values (Epoch: 2025-06-24T01:55:51.305Z)
Latitude
0.00001°
Longitude
-92.08488°
Altitude
440.494 km
Speed
7.648 km/s
True Right ascension
13h 57m 26s
True Declination
0° 00' 00"
Sunlit
Object was in full shadow at epoch
Visualization orbit readout
Latitude
-31.70628°
Longitude
-106.73843°
Altitude
448.269 km
Speed
7.643 km/s
Apparent Right ascension
14h 35m 55s
Apparent Declination
-38° 35' 04"
Sunlit
Object is in full shadow
Visualization observer readout
Local Sidereal Time
04:32:43
Azimuth
96.061° ESE
Elevation
-67.45°
Doppler factor
1
Orbital elements
Apogee altitude
437.797 km
Perigee altitude
434.028 km
Semi-major axis
6,814.05 km
Eccentricity
0.00028
Inclination
69.9998°
RAAN
209.3604°
Arg. of periapsis
269.5694°
True anomaly
Unknown
Mean anomaly
90.5171°
Eccentric anomaly
Unknown
Mean motion
3.85865 °/min
Orbital period
93.3 mins
BSTAR
0.00062283
Loading maneuver chart data...
Loading SW <> Apogee altitude chart data...
Loading historical data...
Loading historical data...
Loading historical data...
Loading historical data...
Loading historical data...
Loading historical data...
Loading historical data...

STARLINK-34005 Visibility forecast

Observer location: undefined°, undefined°

Span
Click to sort rows by Start time (UTC) header in descending order
Start Az.
Max El. time (UTC)
Max El. Az.
Max El.
End time (UTC)
End Az.
5 mins2025-06-25 02:57:44.574Z156.419° SSE2025-06-25 02:59:44.574Z116.936° SE20.787°2025-06-25 03:02:44.574Z54.278° ENE
5 mins2025-06-25 12:42:44.574Z5.876° NNE2025-06-25 12:44:44.574Z62.811° ENE28.871°2025-06-25 12:47:44.574Z127.169° SE
|